TimeEDT,TemperatureF,Dew PointF,Humidity,Sea Level PressureIn,VisibilityMPH,Wind Direction,Wind SpeedMPH,Gust SpeedMPH,PrecipitationIn,Events,Conditions,WindDirDegrees,DateUTC
12:52 AM,63.0,62.1,97,30.07,6.0,ESE,4.6,-,N/A,,Clear,110,2013-10-03 04:52:00
1:52 AM,64.0,62.1,93,30.07,8.0,SSE,3.5,-,N/A,,Mostly Cloudy,150,2013-10-03 05:52:00
2:52 AM,62.1,61.0,96,30.06,5.0,Calm,Calm,-,N/A,,Scattered Clouds,0,2013-10-03 06:52:00
3:52 AM,64.0,63.0,96,30.05,7.0,Calm,Calm,-,N/A,,Overcast,0,2013-10-03 07:52:00
4:52 AM,63.0,62.1,97,30.04,6.0,SSE,3.5,-,N/A,,Mostly Cloudy,160,2013-10-03 08:52:00
5:52 AM,63.0,63.0,100,30.05,5.0,SW,3.5,-,N/A,,Mostly Cloudy,230,2013-10-03 09:52:00
6:48 AM,64.4,62.6,94,30.08,6.0,SSW,3.5,-,N/A,,Mostly Cloudy,200,2013-10-03 10:48:00
6:52 AM,64.9,64.0,97,30.06,6.0,South,3.5,-,N/A,,Overcast,190,2013-10-03 10:52:00
7:18 AM,64.4,64.4,100,30.09,5.0,South,4.6,-,N/A,,Overcast,190,2013-10-03 11:18:00
7:52 AM,64.0,64.0,100,30.07,3.0,SSW,5.8,-,N/A,,Mostly Cloudy,200,2013-10-03 11:52:00
8:05 AM,62.6,62.6,100,30.08,2.5,South,5.8,-,N/A,,Partly Cloudy,190,2013-10-03 12:05:00
8:40 AM,66.2,64.4,94,30.09,3.0,South,4.6,-,N/A,,Clear,190,2013-10-03 12:40:00
8:52 AM,66.9,66.0,97,30.07,3.0,SSW,4.6,-,N/A,,Clear,200,2013-10-03 12:52:00
9:52 AM,71.1,66.0,84,30.07,7.0,SW,8.1,-,N/A,,Clear,230,2013-10-03 13:52:00
10:52 AM,73.9,66.9,79,30.07,9.0,South,12.7,-,N/A,,Partly Cloudy,190,2013-10-03 14:52:00
11:15 AM,73.4,66.2,78,30.09,8.0,SSW,9.2,-,N/A,,Mostly Cloudy,210,2013-10-03 15:15:00
11:52 AM,75.9,66.0,71,30.06,10.0,South,10.4,-,N/A,,Mostly Cloudy,190,2013-10-03 15:52:00
12:37 PM,77.0,64.4,65,30.08,10.0,WSW,9.2,17.3,N/A,,Scattered Clouds,240,2013-10-03 16:37:00
12:52 PM,79.0,66.0,64,30.06,10.0,SSW,10.4,-,N/A,,Mostly Cloudy,210,2013-10-03 16:52:00
12:59 PM,78.8,64.4,61,30.07,10.0,WSW,10.4,17.3,N/A,,Mostly Cloudy,240,2013-10-03 16:59:00
1:15 PM,77.0,64.4,65,30.08,10.0,SW,10.4,-,N/A,,Mostly Cloudy,220,2013-10-03 17:15:00
1:50 PM,75.2,64.4,69,30.07,10.0,WSW,8.1,-,N/A,,Mostly Cloudy,250,2013-10-03 17:50:00
1:52 PM,75.9,64.9,69,30.05,10.0,WSW,8.1,-,N/A,,Mostly Cloudy,240,2013-10-03 17:52:00
2:00 PM,75.2,64.4,69,30.06,10.0,SW,9.2,-,N/A,,Mostly Cloudy,230,2013-10-03 18:00:00
2:52 PM,79.0,64.0,60,30.03,10.0,SW,13.8,19.6,N/A,,Scattered Clouds,220,2013-10-03 18:52:00
3:52 PM,77.0,64.0,64,30.01,10.0,SW,10.4,-,N/A,,Partly Cloudy,230,2013-10-03 19:52:00
3:57 PM,77.0,64.4,65,30.03,10.0,WSW,10.4,-,N/A,,Clear,240,2013-10-03 19:57:00
4:23 PM,68.0,64.4,88,30.07,1.8,WSW,15.0,23.0,N/A,Rain,Rain,240,2013-10-03 20:23:00
4:33 PM,66.2,64.4,94,30.06,0.8,SSW,6.9,-,N/A,Rain,Heavy Rain,200,2013-10-03 20:33:00
4:38 PM,66.2,64.4,94,30.07,2.0,SSW,8.1,-,N/A,Rain,Rain,210,2013-10-03 20:38:00
4:48 PM,66.2,64.4,94,30.06,4.0,SSW,9.2,-,N/A,Rain,Light Rain,200,2013-10-03 20:48:00
4:52 PM,66.0,64.9,96,30.05,4.0,SSW,6.9,-,N/A,Rain,Rain,200,2013-10-03 20:52:00
5:04 PM,66.2,64.4,94,30.05,1.5,WSW,8.1,-,0.03,Rain,Heavy Rain,240,2013-10-03 21:04:00
5:16 PM,68.0,66.2,94,30.05,3.0,SSW,4.6,-,0.14,Rain,Light Rain,200,2013-10-03 21:16:00
5:52 PM,70.0,66.9,90,30.02,3.0,South,5.8,-,0.14,,Mostly Cloudy,180,2013-10-03 21:52:00
6:52 PM,69.1,66.9,93,30.02,10.0,South,9.2,-,N/A,,Clear,170,2013-10-03 22:52:00
7:52 PM,66.9,66.0,97,30.03,10.0,South,6.9,-,N/A,,Clear,180,2013-10-03 23:52:00
8:52 PM,66.9,66.0,97,30.02,10.0,South,8.1,-,N/A,,Clear,170,2013-10-04 00:52:00
9:52 PM,68.0,66.0,93,30.03,10.0,South,8.1,-,N/A,,Clear,190,2013-10-04 01:52:00
10:52 PM,68.0,66.0,93,30.05,10.0,South,8.1,-,N/A,,Partly Cloudy,190,2013-10-04 02:52:00